Tracking 29892 objects as of 21-Nov-2024
HD Live streaming from Space Station
objects crossing your sky now

COSMOS 839 DEB

Track COSMOS 839 DEB now!
10-day predictions


NORAD ID: 13946
Int'l Code: 1976-067BE
Perigee: 956.8 km
Apogee: 1,973.3 km
Inclination: 66.1 °
Period: 115.1 minutes
Semi major axis: 7836 km
RCS: 0.0127 m2 (small)
Launch date: July 8, 1976
Source: Commonwealth of Independent States (former USSR) (CIS)
Launch site: PLESETSK MISSILE AND SPACE COMPLEX (PKMTR)

Note: This is SATELLITE DEBRIS
Your satellite tracking list
Your tracking list is empty




NASA's NSSDC Master Catalog

Two Line Element Set (TLE):
1 13946U 76067BE  24325.30073830  .00000287  00000-0  10200-2 0  9991
2 13946  66.0631 274.0091 0648578 177.8474 337.0544 12.51576456900890
Source of the keplerian elements: AFSPC